Regional Weather Roundup
Issued by NWS

Home | Current Version | Previous Version | Graphics & Text | Print | Product List | Glossary Off
Versions: 1 2 3 4 5 6 7 8 9 10 11 12 13 14 15 16 17 18 19 20 21 22 23 24 25 26 27 28 29 30 31 32 33 34 35 36 37 38 39 40 41 42 43 44 45 46 47 48 49 50

000
ASUS43 KTOP 291659
RWRKS

WEATHER ROUNDUP FOR KANSAS
NATIONAL WEATHER SERVICE GOODLAND KS
1100 AM CST THU JAN 29 2015

NOTE:  "FAIR" INDICATES FEW OR NO CLOUDS BELOW 12,000 FEET WITH NO
SIGNIFICANT WEATHER AND/OR OBSTRUCTIONS TO VISIBILITY.

KSZ001>006-013>018-027>032-041>047-291800-
NORTHWEST KANSAS

CITY           SKY/WX    TMP DP  RH WIND       PRES   REMARKS
GOODLAND       SUNNY     37  28  70 N17       30.51R WCI  27
HAYS           SUNNY     41  21  45 N22G29    30.49R
HILL CITY      MOSUNNY   41  25  53 N20G28    30.50R
RUSSELL        SUNNY     42  26  53 N21G29    30.46R
$$

KSZ061>065-074>080-084>089-291800-
SOUTHWEST KANSAS

CITY           SKY/WX    TMP DP  RH WIND       PRES   REMARKS
DODGE CITY     MOSUNNY   40  25  55 N23G30    30.50R WCI  30
ELKHART          N/A     42  24  49 N13         N/A
GARDEN CITY    MOSUNNY   39  25  57 N23G30    30.51R WCI  28
LIBERAL        PTSUNNY   43  28  56 N17       30.54R
$$

KSZ066>073-081>083-090>101-291800-
SOUTHEAST KANSAS

CITY           SKY/WX    TMP DP  RH WIND       PRES   REMARKS
CHANUTE        CLOUDY    43  30  60 N15G26    30.38R
COFFEYVILLE    CLOUDY    43  29  57 N18G29    30.41R
HUTCHINSON     CLOUDY    45  26  47 N23G30    30.46R
MEDICINE LODGE   N/A     45  26  47 N22G33    30.48R
NEWTON         CLOUDY    43  25  49 N26G35    30.44R
PARSONS        CLOUDY    43  30  60 N16G25    30.40R
WICHITA INTL   CLOUDY    46  27  47 N23G31    30.44R
WICHITA JABRA  CLOUDY    43  28  55 N24G33    30.43R
WINFIELD       CLOUDY    44  28  53 N24G32    30.45R
$$

KSZ007>012-019>026-033>040-048>060-102>105-291800-
NORTHEAST KANSAS

CITY           SKY/WX    TMP DP  RH WIND       PRES   REMARKS
CONCORDIA      MOSUNNY   42  26  53 N22G35    30.44R
EMPORIA        CLOUDY    41  28  60 N23G36    30.40R
LAWRENCE       CLOUDY    42  27  55 N22G39    30.36R
MANHATTAN      CLOUDY    42  30  62 N10G20    30.43R
OLATHE IND     CLOUDY    40  28  62 N18G30    30.35R WCI  31
OLATHE EXE     CLOUDY    39  28  64 N16G25    30.32R WCI  30
SALINA         CLOUDY    44  26  49 N30G36    30.46R
TOPEKA BILLARD CLOUDY    42  27  55 N22G38    30.39R
TOPEKA FORBES  CLOUDY    43  27  53 N26G38    30.37R
$$


USA.gov is the U.S. government's official web portal to all federal, state and local government web resources and services.